Terug naar catalogus

NAVSPASUR ROD 1

ActiefMilitairPO
NORAD 1515·PAYLOAD·🇺🇸 United States

Gelanceerd Aug 13, 1965 vanaf Vandenberg Space Force Base

Loading…

Volgende Passages (komende 24 uur)

TLE

VersSource: Space-Track

Epoch: Sep 14, 2026, 09:11 UTC

1 01515U 65065G   26257.38273749  .00000531  00000-0  79541-3 0  9997
2 01515  90.0281 214.4754 0063664  56.5377  96.8665 13.51085705992363

Volg NAVSPASUR ROD 1 in realtime met AllMySat

Download on the App Store